OBJECT R, 59066

Orbit data source: Space-Track

You're viewing an Uncataloged Satellite

Recently launched and/or uncataloged satellites may have evolving metadata. Metadata may include but not limited to: Owner, Maufacturer, Bus, Motor, and Mission.

OBJECT R, 59066 is a satellite in LEO that was launched on Thu, 29 Feb 2024 UTC via a SOYUZ-2-1B launch vehicle from the Vostochny Cosmodrome (VOSTO). Unknown objects in Earth's orbit typically refer to objects detected orbiting the Earth but have not yet been identified or cataloged. These objects could be anything from previously untracked satellites, spent rocket stages, debris from satellite collisions, or even natural meteoroids temporarily captured by Earth's gravity.

Loading next visibility...
Identifier
59066, 2024-039R
Orbit
LEO
Country
Flag of TBDTBD
Related business
Manufacturer
Sputniks
Mission
Operational Commercial Communications
Bus & Motor
CUBESAT 3U?, Unknown motor
Mass
3 kg wet, 3 kg dry
Launch date (UTC)
2024-02-29 (2 years ago)
Launch vehicle
SOYUZ-2-1B
Launch site
Vostochny Cosmodrome (VOSTO)
Object type
Unknown
Shape & HBR
Box, 0.1 m
Radar Cross Section
0.035 m², Medium (>0.1 m² and < 1m²)

Expand to show TLE details & history
Last TLE update: 6 hours ago

TLE from 6 hours ago
0 OBJECT R
1 59066U 24039R   26169.58214678  .00002290  00000-0  18054-3 0  9993
2 59066  95.3904 236.0513 0143275 323.8249  35.3349 14.93519055124939
Epoch: 2026-06-18T13:58Z
TLE epoch observation values (Epoch: 2026-06-18T13:58:17.481Z)
Latitude
-0.00004°
Longitude
119.65506°
Altitude
509.138 km
Speed
7.653 km/s
True Right ascension
15h 44m 12s
True Declination
0° 00' 00"
Sunlit
Object was in full shadow at epoch
Visualization orbit readout
Latitude
Unknown
Longitude
Unknown
Altitude
Unknown
Speed
Unknown
Apparent Right ascension
Unknown
Apparent Declination
Unknown
Sunlit
N/A
Visualization observer readout
Local Sidereal Time
06:50:23
Azimuth
Unknown
Elevation
Unknown
Doppler factor
Unknown
Orbital elements
Apogee altitude
683.648 km
Perigee altitude
484.151 km
Semi-major axis
6,962.037 km
Eccentricity
0.01433
Inclination
95.3904°
RAAN
236.0513°
Arg. of periapsis
323.8249°
True anomaly
36.29847°
Mean anomaly
35.3349°
Eccentric anomaly
35.81527°
Mean motion
3.73627 °/min
Orbital period
96.35 mins
BSTAR
0.00018054
Loading maneuver chart data...
Computing Atmospheric mass density...
Loading historical data...
Loading historical data...
Loading historical data...
Loading historical data...
Loading historical data...
Loading historical data...
Loading historical data...

Documentation

Showing up to 5 results
|